Del Bajio, Mexico

7:33 PM CDT on August 25, 2016 (GMT -0500)
De Guanajuato International

Weather History for MMLO - November, 2013

Change the Weather History Date:

Friday, November 29, 2013

  Actual Average Record
Temperature  
Mean Temperature 58 °F -  
Max Temperature 75 °F 76 °F 84 °F (2004)
Min Temperature 42 °F 44 °F 32 °F (2011)
Degree Days  
Heating Degree Days 6    
Growing Degree Days 8 (Base 50)    
Moisture  
Dew Point 40 °F    
Average Humidity 53    
Maximum Humidity 93    
Minimum Humidity 25    
Precipitation  
Precipitation 0.00 in - - ()
Sea Level Pressure  
Sea Level Pressure 30.26 in    
Wind  
Wind Speed 5 mph ()    
Max Wind Speed 23 mph    
Max Gust Speed 23 mph    
Visibility 8.9 miles    
Events      
Averages and records for this station are not official NWS values.
T = Trace of Precipitation, MM = Missing Value Source: Averaged Metar Reports

Daily Weather History Graph

Daily Weather History Graph

Search for Another Location

Airport or City:

Trip Planner

Search our weather history database for the weather conditions in past years. The results will help you decide how hot, cold, wet, or windy it might be!

Date:

Astronomy

Nov. 29, 2013 Rise Set
Actual Time 7:05 AM CST 6:03 PM CST
Civil Twilight 6:41 AM CST 6:27 PM CST
Nautical Twilight 6:14 AM CST 6:54 PM CST
Astronomical Twilight 5:47 AM CST 7:21 PM CST
Moon 3:36 AM CST (11/29) 3:28 PM CST (11/29)
Length of Visible Light 11h 45m
Length of Day
10h 58m
Waning Crescent, 14% of the Moon is Illuminated
Nov 29
Waning Crescent
Dec 2
New
Dec 9
First Quarter
Dec 17
Full
Dec 25
Last Quarter

Hourly Weather History & Observations

Time (CST) Temp. Dew Point Humidity Pressure Visibility Wind Dir Wind Speed Gust Speed Precip Events Conditions
12:43 AM 55.4 °F 42.8 °F 63% 30.33 in 8.0 mi NE 3.5 mph - N/A   Scattered Clouds
1:43 AM 48.2 °F 37.4 °F 66% 30.33 in 8.0 mi NE 4.6 mph - N/A   Scattered Clouds
5:49 AM 44.6 °F 41.0 °F 87% 30.09 in 8.0 mi Calm Calm - N/A   Scattered Clouds
6:55 AM 42.8 °F 39.2 °F 87% 30.35 in 10.0 mi Calm Calm - N/A   Scattered Clouds
7:43 AM 44.6 °F 42.8 °F 93% 30.35 in 10.0 mi Calm Calm - N/A   Mostly Cloudy
8:41 AM 53.6 °F 42.8 °F 67% 30.20 in 6.0 mi Calm Calm - N/A   Mostly Cloudy
9:41 AM 60.8 °F 42.8 °F 52% 30.41 in 8.0 mi South 4.6 mph - N/A   Mostly Cloudy
10:43 AM 64.4 °F 42.8 °F 45% 30.41 in 9.0 mi East 6.9 mph - N/A   Mostly Cloudy
11:42 AM 68.0 °F 44.6 °F 43% 30.08 in 9.0 mi SSE 5.8 mph - N/A   Scattered Clouds
12:43 PM 71.6 °F 42.8 °F 35% 30.35 in 9.0 mi SSE 6.9 mph - N/A   Scattered Clouds
1:44 PM 73.4 °F 42.8 °F 33% 30.29 in 10.0 mi Calm Calm - N/A   Scattered Clouds
2:49 PM 75.2 °F 41.0 °F 29% 29.96 in 10.0 mi SSE 5.8 mph - N/A   Scattered Clouds
3:45 PM 73.4 °F 35.6 °F 25% 30.27 in 10.0 mi NE 11.5 mph - N/A   Scattered Clouds
4:47 PM 69.8 °F 37.4 °F 31% 30.27 in 10.0 mi NE 13.8 mph - N/A   Partly Cloudy
5:43 PM 64.4 °F 41.0 °F 42% 30.06 in 10.0 mi NE 16.1 mph - N/A   Scattered Clouds
6:47 PM 59.0 °F 37.4 °F 45% 30.29 in 10.0 mi NE 20.7 mph - N/A   Scattered Clouds
7:44 PM 57.2 °F 35.6 °F 44% 30.32 in 8.0 mi NE 23.0 mph - N/A   Partly Cloudy
8:49 PM 55.4 °F 37.4 °F 51% 30.14 in 8.0 mi NE 20.7 mph - N/A   Partly Cloudy
9:49 PM 53.6 °F 37.4 °F 54% 30.36 in 8.0 mi NE 11.5 mph 23.0 mph N/A   Partly Cloudy
10:50 PM 50.0 °F 37.4 °F 62% 30.37 in 8.0 mi ENE 9.2 mph - N/A   Clear